Location: Austin
(30.3000°N, 97.7500°W)
Time: 23:28:48
(UTC-06:00)

CZ-2D R/B - Pass Details

Date: 04 November 2025
Orbit: 407 x 418 km, 97.4° (Epoch: 15 November)

Event Time Altitude Azimuth Distance (km) Brightness Sun altitude
Rises 18:05:57 0° 163° (SSE) 2,346 6.5 -6.0°
Reaches altitude 10° 18:07:57 10° 160° (SSE) 1,484 5.5 -6.4°
Maximum altitude 18:11:06 67° 78° (ENE) 451 2.7 -7.1°
Drops below altitude 10° 18:14:15 10° 355° (N) 1,486 5.5 -7.8°
Sets 18:16:15 0° 352° (N) 2,349 6.5 -8.2°
